DAL516 KDAL-KATL

Flight info

Callsign DAL516
Flight time N/A
Altitude 37000
Route LNDRE5 LOOSE MEMFS HUTCC KNSAW RUSSA GLAVN2
Aircraft A319/M-SDE3FGHIRWY/LB1

Departure

Time 2026-04-30 14:03
Airport Dallas Love Field (KDAL)

Arrival

Time N/A
Airport Hartsfield Jackson Atlanta International Airport (KATL)
Time Latitude Longitude Altitude Speed Heading
2026-04-30 13:40 32.84556 -96.85054 482 ft 0 kts 360°
2026-04-30 13:48 32.84554 -96.85054 482 ft 0 kts
2026-04-30 13:48 32.84544 -96.85061 481 ft 2 kts 33°
2026-04-30 13:49 32.84531 -96.85068 481 ft 2 kts 25°
2026-04-30 13:49 32.84517 -96.85077 480 ft 2 kts 26°
2026-04-30 13:49 32.84503 -96.85085 480 ft 2 kts 26°
2026-04-30 13:49 32.84498 -96.85088 480 ft 0 kts 25°
2026-04-30 13:50 32.84494 -96.85089 480 ft 0 kts 326°
2026-04-30 13:50 32.84490 -96.85078 480 ft 0 kts 288°
2026-04-30 13:55 32.84491 -96.85084 480 ft 2 kts 281°
2026-04-30 13:55 32.84495 -96.85114 479 ft 5 kts 278°
2026-04-30 13:55 32.84503 -96.85173 478 ft 8 kts 279°
2026-04-30 13:55 32.84510 -96.85251 478 ft 10 kts 272°
2026-04-30 13:56 32.84513 -96.85313 478 ft 6 kts 288°
2026-04-30 13:56 32.84556 -96.85339 478 ft 8 kts 359°
2026-04-30 13:56 32.84618 -96.85332 478 ft 9 kts
2026-04-30 13:56 32.84690 -96.85326 479 ft 10 kts
2026-04-30 13:57 32.84743 -96.85285 481 ft 8 kts 75°
2026-04-30 13:57 32.84745 -96.85214 482 ft 9 kts 92°
2026-04-30 13:57 32.84742 -96.85127 482 ft 12 kts 91°
2026-04-30 13:57 32.84742 -96.85013 483 ft 14 kts 89°
2026-04-30 13:58 32.84744 -96.84893 485 ft 13 kts 90°
2026-04-30 13:58 32.84681 -96.84719 485 ft 12 kts 135°
2026-04-30 13:58 32.84617 -96.84647 485 ft 13 kts 136°
2026-04-30 13:59 32.84545 -96.84573 485 ft 14 kts 151°
2026-04-30 13:59 32.84454 -96.84521 485 ft 15 kts 140°
2026-04-30 13:59 32.84376 -96.84434 485 ft 15 kts 135°
2026-04-30 13:59 32.84297 -96.84337 485 ft 16 kts 133°
2026-04-30 14:00 32.84235 -96.84262 485 ft 5 kts 134°
2026-04-30 14:00 32.84175 -96.84174 485 ft 8 kts 136°
2026-04-30 14:00 32.84126 -96.84122 485 ft 10 kts 131°
2026-04-30 14:01 32.84124 -96.84038 486 ft 10 kts 61°
2026-04-30 14:01 32.84169 -96.83974 488 ft 10 kts 45°
2026-04-30 14:01 32.84214 -96.83932 489 ft 6 kts
2026-04-30 14:01 32.84233 -96.83942 489 ft 0 kts 317°
2026-04-30 14:02 32.84238 -96.83948 489 ft 10 kts 316°
2026-04-30 14:02 32.84497 -96.84250 490 ft 91 kts 316°
2026-04-30 14:02 32.85113 -96.84974 498 ft 154 kts 316°
2026-04-30 14:02 32.85902 -96.85883 1051 ft 161 kts 319°
2026-04-30 14:03 32.86684 -96.86871 1724 ft 168 kts 316°
2026-04-30 14:03 32.87438 -96.87917 2415 ft 172 kts 316°
2026-04-30 14:03 32.88247 -96.89002 3021 ft 182 kts 321°
2026-04-30 14:03 32.89362 -96.89655 3559 ft 185 kts
2026-04-30 14:04 32.90686 -96.89538 4110 ft 200 kts 13°
2026-04-30 14:04 32.92001 -96.88900 4719 ft 213 kts 39°
2026-04-30 14:04 32.93159 -96.87722 5365 ft 228 kts 46°
2026-04-30 14:04 32.93967 -96.86083 5959 ft 245 kts 79°
2026-04-30 14:05 32.93760 -96.84029 6616 ft 262 kts 115°
2026-04-30 14:05 32.92533 -96.82413 7269 ft 276 kts 151°
2026-04-30 14:05 32.90710 -96.81656 8070 ft 283 kts 166°
2026-04-30 14:05 32.88843 -96.80954 8943 ft 289 kts 162°
2026-04-30 14:06 32.86980 -96.79999 9823 ft 295 kts 158°
2026-04-30 14:06 32.83235 -96.77541 11061 ft 324 kts 153°
2026-04-30 14:07 32.79327 -96.74628 12524 ft 339 kts 151°
2026-04-30 14:07 32.77363 -96.73121 13281 ft 343 kts 151°
2026-04-30 14:07 32.75319 -96.71555 13993 ft 350 kts 151°
2026-04-30 14:08 32.71177 -96.68383 15440 ft 360 kts 151°
2026-04-30 14:08 32.69281 -96.66445 16094 ft 374 kts 130°
2026-04-30 14:08 32.67904 -96.60489 17444 ft 390 kts 89°
2026-04-30 14:09 32.67963 -96.57253 17999 ft 398 kts 85°
2026-04-30 14:09 32.68570 -96.54069 18542 ft 398 kts 61°
2026-04-30 14:09 32.72244 -96.49467 19744 ft 387 kts 28°
2026-04-30 14:10 32.74445 -96.47553 20259 ft 395 kts 28°
2026-04-30 14:10 32.76641 -96.45612 20787 ft 402 kts 29°
2026-04-30 14:10 32.78871 -96.43576 21343 ft 407 kts 30°
2026-04-30 14:10 32.81104 -96.41497 21887 ft 413 kts 30°
2026-04-30 14:11 32.83382 -96.39352 22407 ft 418 kts 30°
2026-04-30 14:11 32.85647 -96.37213 22906 ft 424 kts 30°
2026-04-30 14:11 32.87947 -96.34966 23396 ft 433 kts 36°
2026-04-30 14:11 32.89934 -96.32203 23875 ft 449 kts 51°
2026-04-30 14:12 32.91378 -96.28895 24411 ft 458 kts 64°
2026-04-30 14:12 32.92529 -96.25342 24918 ft 463 kts 66°
2026-04-30 14:12 32.93623 -96.21731 25363 ft 468 kts 66°
2026-04-30 14:12 32.94361 -96.19305 25662 ft 470 kts 66°
2026-04-30 14:13 32.95884 -96.14420 26242 ft 476 kts 65°
2026-04-30 14:13 32.97057 -96.10738 26656 ft 480 kts 65°
2026-04-30 14:13 32.98247 -96.07031 27074 ft 484 kts 64°
2026-04-30 14:13 32.99462 -96.03271 27481 ft 488 kts 64°
2026-04-30 14:14 33.00669 -95.99522 27897 ft 491 kts 63°
2026-04-30 14:14 33.01888 -95.95738 28297 ft 494 kts 63°
2026-04-30 14:14 33.03120 -95.91915 28682 ft 497 kts 63°
2026-04-30 14:14 33.04353 -95.88077 29063 ft 501 kts 63°
2026-04-30 14:15 33.05607 -95.84172 29470 ft 504 kts 63°
2026-04-30 14:15 33.06859 -95.80284 29861 ft 507 kts 63°
2026-04-30 14:15 33.08120 -95.76369 30232 ft 511 kts 63°
2026-04-30 14:15 33.09386 -95.72415 30662 ft 513 kts 63°
2026-04-30 14:16 33.10665 -95.68431 31037 ft 516 kts 63°
2026-04-30 14:16 33.11937 -95.64452 31515 ft 516 kts 63°
2026-04-30 14:16 33.13197 -95.60497 32040 ft 514 kts 63°
2026-04-30 14:16 33.14463 -95.56526 32540 ft 513 kts 63°
2026-04-30 14:17 33.15731 -95.52547 33018 ft 512 kts 63°
2026-04-30 14:17 33.16987 -95.48595 33518 ft 511 kts 63°
2026-04-30 14:17 33.18244 -95.44633 33999 ft 511 kts 63°
2026-04-30 14:17 33.19497 -95.40682 34507 ft 510 kts 63°
2026-04-30 14:18 33.20744 -95.36753 34983 ft 509 kts 62°
2026-04-30 14:18 33.21995 -95.32810 35400 ft 508 kts 64°
2026-04-30 14:18 33.24500 -95.24895 35934 ft 512 kts 63°
2026-04-30 14:19 33.27012 -95.16930 36402 ft 517 kts 64°
2026-04-30 14:19 33.28271 -95.12923 36641 ft 518 kts 64°
2026-04-30 14:19 33.29532 -95.08902 36902 ft 519 kts 63°
2026-04-30 14:20 33.30802 -95.04856 37032 ft 521 kts 64°
2026-04-30 14:20 33.34600 -94.92725 37042 ft 522 kts 63°
2026-04-30 14:21 33.37129 -94.84628 37041 ft 522 kts 63°
2026-04-30 14:22 33.40904 -94.72468 37043 ft 522 kts 63°
2026-04-30 14:22 33.44679 -94.60272 37043 ft 522 kts 63°
2026-04-30 14:23 33.49688 -94.44019 37042 ft 521 kts 63°
2026-04-30 14:24 33.53442 -94.31784 37041 ft 523 kts 63°
2026-04-30 14:25 33.58364 -94.15442 37046 ft 522 kts 63°
2026-04-30 14:26 33.62015 -94.03169 37045 ft 525 kts 63°
2026-04-30 14:27 33.65659 -93.90842 37053 ft 523 kts 63°
2026-04-30 14:27 33.68079 -93.82655 37055 ft 523 kts 63°
2026-04-30 14:28 33.71704 -93.70329 37060 ft 523 kts 63°
2026-04-30 14:28 33.74115 -93.62107 37057 ft 524 kts 64°
2026-04-30 14:29 33.78525 -93.46999 37060 ft 524 kts 63°
2026-04-30 14:31 33.84910 -93.24988 37065 ft 525 kts 64°
2026-04-30 14:31 33.88484 -93.12573 37067 ft 524 kts 64°
2026-04-30 14:32 33.92593 -93.00571 37068 ft 518 kts 56°
2026-04-30 14:33 33.95583 -92.92742 37072 ft 517 kts 56°
2026-04-30 14:33 34.00055 -92.80923 37072 ft 518 kts 56°
2026-04-30 14:34 34.03001 -92.73054 37078 ft 517 kts 57°
2026-04-30 14:34 34.05962 -92.65146 37082 ft 519 kts 57°
2026-04-30 14:35 34.10370 -92.53297 37085 ft 518 kts 56°
2026-04-30 14:36 34.13315 -92.45367 37086 ft 517 kts 57°
2026-04-30 14:36 34.16227 -92.37506 37090 ft 517 kts 57°
2026-04-30 14:37 34.19152 -92.29606 37090 ft 518 kts 57°
2026-04-30 14:37 34.22065 -92.21700 37096 ft 518 kts 57°
2026-04-30 14:38 34.24968 -92.13796 37094 ft 516 kts 57°
2026-04-30 14:38 34.27869 -92.05890 37100 ft 515 kts 57°
2026-04-30 14:39 34.30770 -91.97977 37099 ft 516 kts 57°
2026-04-30 14:39 34.33660 -91.90063 37101 ft 516 kts 57°
2026-04-30 14:40 34.37970 -91.78214 37099 ft 515 kts 57°
2026-04-30 14:40 34.40850 -91.70282 37102 ft 514 kts 56°
2026-04-30 14:41 34.43711 -91.62370 37102 ft 513 kts 57°
2026-04-30 14:41 34.46557 -91.54501 37101 ft 514 kts 56°
2026-04-30 14:42 34.49421 -91.46552 37103 ft 515 kts 56°
2026-04-30 14:42 34.52256 -91.38650 37101 ft 513 kts 56°
2026-04-30 14:43 34.55094 -91.30741 37098 ft 512 kts 57°
2026-04-30 14:43 34.57908 -91.22878 37098 ft 513 kts 57°
2026-04-30 14:44 34.60726 -91.14959 37097 ft 511 kts 57°
2026-04-30 14:44 34.63544 -91.07050 37096 ft 512 kts 57°
2026-04-30 14:45 34.66357 -90.99116 37098 ft 510 kts 57°
2026-04-30 14:45 34.69143 -90.91247 37102 ft 510 kts 56°
2026-04-30 14:46 34.71936 -90.83353 37103 ft 512 kts 56°
2026-04-30 14:46 34.74708 -90.75467 37103 ft 510 kts 56°
2026-04-30 14:47 34.77496 -90.67545 37106 ft 511 kts 57°
2026-04-30 14:47 34.80273 -90.59614 37106 ft 510 kts 56°
2026-04-30 14:48 34.83055 -90.51666 37109 ft 513 kts 56°
2026-04-30 14:48 34.85818 -90.43733 37109 ft 512 kts 56°
2026-04-30 14:49 34.88584 -90.35780 37110 ft 512 kts 56°
2026-04-30 14:49 34.91340 -90.27818 37110 ft 510 kts 57°
2026-04-30 14:50 34.95474 -90.15884 37111 ft 513 kts 57°
2026-04-30 14:51 34.99427 -90.03727 37112 ft 522 kts 65°
2026-04-30 14:51 35.00619 -89.94928 37104 ft 539 kts 83°
2026-04-30 14:52 35.00529 -89.90353 37104 ft 543 kts 92°
2026-04-30 14:52 34.98595 -89.76702 37105 ft 546 kts 99°
2026-04-30 14:53 34.96547 -89.63087 37099 ft 546 kts 98°
2026-04-30 14:54 34.93950 -89.44916 37099 ft 545 kts 97°
2026-04-30 14:55 34.91997 -89.31304 37090 ft 546 kts 97°
2026-04-30 14:56 34.89358 -89.13191 37090 ft 545 kts 98°
2026-04-30 14:57 34.87363 -88.99596 37092 ft 545 kts 98°
2026-04-30 14:58 34.84684 -88.81470 37094 ft 547 kts 97°
2026-04-30 14:58 34.82656 -88.67935 37094 ft 545 kts 98°
2026-04-30 15:00 34.79232 -88.45308 37086 ft 545 kts 98°
2026-04-30 15:01 34.76477 -88.27250 37077 ft 544 kts 99°
2026-04-30 15:01 34.74396 -88.13752 37081 ft 545 kts 98°
2026-04-30 15:02 34.72990 -88.04752 37076 ft 545 kts 98°
2026-04-30 15:03 34.69467 -87.82230 37072 ft 544 kts 98°
2026-04-30 15:04 34.65897 -87.59724 37068 ft 544 kts 97°
2026-04-30 15:06 34.62233 -87.37306 37067 ft 543 kts 100°
2026-04-30 15:07 34.58897 -87.19432 37062 ft 543 kts 101°
2026-04-30 15:08 34.55697 -87.01652 37047 ft 542 kts 99°
2026-04-30 15:09 34.50819 -86.79654 37048 ft 543 kts 107°
2026-04-30 15:10 34.46337 -86.62264 37043 ft 542 kts 105°
2026-04-30 15:11 34.39647 -86.36220 37035 ft 541 kts 105°
2026-04-30 15:13 34.34044 -86.14578 37028 ft 541 kts 106°
2026-04-30 15:14 34.29550 -85.97385 36492 ft 533 kts 106°
2026-04-30 15:14 34.26215 -85.84637 34666 ft 530 kts 107°
2026-04-30 15:16 34.20590 -85.63344 31304 ft 537 kts 108°
2026-04-30 15:17 34.16079 -85.46388 29282 ft 523 kts 110°
2026-04-30 15:18 34.10630 -85.26082 27161 ft 497 kts 110°
2026-04-30 15:19 34.07496 -85.14437 25865 ft 481 kts 110°